| time (UTC) | temp C | wind direction | speed KPH | gust KPH | rain 1hr cm | rain 24hr cm | rain mn cm | humidity % | barometer mb |
| 20260831060904 | 14 | 155 | 9.7 | 17.7 | 0.00 | 0.58 | 0.03 | 96 | 1003.8 |
| 20260831060004 | 14 | 152 | 6.4 | 12.9 | 0.00 | 0.61 | 0.03 | 97 | 1003.9 |
| 20260831055404 | 14 | 140 | 4.8 | 11.3 | 0.00 | 0.64 | 0.03 | 97 | 1003.9 |
| 20260831054504 | 14 | 153 | 6.4 | 11.3 | 0.00 | 0.64 | 0.03 | 97 | 1003.9 |
| 20260831053604 | 14 | 163 | 6.4 | 12.9 | 0.00 | 0.66 | 0.03 | 97 | 1003.9 |
| 20260831052725 | 14 | 146 | 4.8 | 11.3 | 0.00 | 0.69 | 0.03 | 97 | 1003.9 |
| 20260831051804 | 14 | 139 | 3.2 | 9.7 | 0.00 | 0.69 | 0.03 | 97 | 1003.9 |
| 20260831050904 | 14 | 138 | 4.8 | 6.4 | 0.00 | 0.69 | 0.03 | 97 | 1003.9 |
| 20260831050004 | 13 | 148 | 6.4 | 9.7 | 0.00 | 0.69 | 0.03 | 96 | 1003.9 |
| 20260831045404 | 13 | 149 | 4.8 | 9.7 | 0.00 | 0.69 | 0.03 | 97 | 1003.9 |
| 20260831044504 | 13 | 147 | 4.8 | 9.7 | 0.00 | 0.69 | 0.03 | 97 | 1003.9 |
| 20260831043604 | 13 | 143 | 4.8 | 8.0 | 0.00 | 0.69 | 0.03 | 97 | 1003.9 |
| 20260831042704 | 13 | 144 | 3.2 | 6.4 | 0.00 | 0.69 | 0.03 | 97 | 1003.9 |
| 20260831041804 | 13 | 146 | 4.8 | 9.7 | 0.00 | 0.69 | 0.03 | 97 | 1004.0 |
| 20260831040004 | 13 | 141 | 6.4 | 11.3 | 0.00 | 0.69 | 0.03 | 96 | 1004.0 |
| 20260831035404 | 13 | 145 | 4.8 | 11.3 | 0.00 | 0.69 | 0.03 | 97 | 1004.0 |
| 20260831034504 | 13 | 142 | 4.8 | 11.3 | 0.00 | 0.69 | 0.03 | 96 | 1003.9 |
| 20260831033604 | 13 | 143 | 4.8 | 9.7 | 0.00 | 0.69 | 0.03 | 96 | 1003.9 |
| 20260831032704 | 13 | 155 | 4.8 | 11.3 | 0.00 | 0.69 | 0.03 | 96 | 1003.8 |
| 20260831031804 | 13 | 151 | 6.4 | 14.5 | 0.00 | 0.69 | 0.03 | 96 | 1003.8 |
| 20260831030904 | 13 | 154 | 4.8 | 9.7 | 0.00 | 0.69 | 0.03 | 96 | 1003.9 |
| 20260831030004 | 13 | 151 | 4.8 | 9.7 | 0.00 | 0.69 | 0.03 | 96 | 1003.9 |
| 20260831025404 | 13 | 147 | 4.8 | 9.7 | 0.00 | 0.69 | 0.03 | 96 | 1003.9 |
| 20260831024504 | 13 | 161 | 3.2 | 8.0 | 0.00 | 0.69 | 0.03 | 96 | 1004.0 |
| 20260831023604 | 13 | 170 | 3.2 | 9.7 | 0.00 | 0.69 | 0.03 | 96 | 1003.9 |
| 20260831022704 | 13 | 148 | 6.4 | 12.9 | 0.00 | 0.69 | 0.03 | 96 | 1003.9 |
| 20260831021804 | 13 | 161 | 4.8 | 12.9 | 0.00 | 0.69 | 0.03 | 96 | 1003.9 |
| 20260831020904 | 13 | 157 | 4.8 | 12.9 | 0.00 | 0.69 | 0.03 | 96 | 1003.9 |
| 20260831020004 | 13 | 155 | 6.4 | 11.3 | 0.00 | 0.69 | 0.03 | 96 | 1003.8 |
| 20260831015404 | 13 | 159 | 6.4 | 12.9 | 0.00 | 0.69 | 0.03 | 96 | 1003.9 |
| 20260831014504 | 13 | 159 | 6.4 | 12.9 | 0.00 | 0.69 | 0.03 | 96 | 1004.0 |
| 20260831013603 | 13 | 159 | 6.4 | 11.3 | 0.03 | 0.69 | 0.03 | 96 | 1003.9 |
| 20260831012725 | 13 | 156 | 4.8 | 12.9 | 0.03 | 0.69 | 0.03 | 96 | 1003.9 |
| 20260831011804 | 13 | 167 | 8.0 | 14.5 | 0.03 | 0.69 | 0.03 | 96 | 1004.0 |
| 20260831010904 | 13 | 169 | 4.8 | 12.9 | 0.03 | 0.69 | 0.03 | 96 | 1003.9 |
| 20260831010004 | 13 | 137 | 3.2 | 6.4 | 0.03 | 0.69 | 0.03 | 96 | 1003.9 |
| 20260831005404 | 13 | 137 | 1.6 | 4.8 | 0.03 | 0.69 | 0.03 | 96 | 1003.9 |
| 20260831004525 | 13 | 137 | 1.6 | 4.8 | 0.03 | 0.69 | 0.03 | 96 | 1003.9 |
| 20260831003604 | 13 | 137 | 1.6 | 3.2 | 0.00 | 0.66 | 0.00 | 96 | 1003.9 |
| 20260831002704 | 14 | 137 | 3.2 | 4.8 | 0.00 | 0.66 | 0.00 | 96 | 1003.9 |
| 20260831001804 | 14 | 137 | 3.2 | 6.4 | 0.00 | 0.66 | 0.00 | 96 | 1003.9 |
| 20260831000904 | 14 | 137 | 3.2 | 4.8 | 0.00 | 0.66 | 0.00 | 96 | 1004.0 |
| 20260831000004 | 14 | 137 | 3.2 | 6.4 | 0.00 | 0.66 | 0.00 | 96 | 1003.9 |
| 20260830235404 | 14 | 137 | 1.6 | 4.8 | 0.00 | 0.66 | 0.00 | 96 | 1003.9 |
| 20260830234525 | 14 | 137 | 1.6 | 4.8 | 0.00 | 0.66 | 0.00 | 96 | 1003.9 |
| 20260830233604 | 14 | 137 | 1.6 | 6.4 | 0.00 | 0.66 | 0.00 | 96 | 1003.9 |
| 20260830232704 | 14 | 137 | 3.2 | 6.4 | 0.00 | 0.66 | 0.00 | 96 | 1003.9 |
| 20260830231804 | 14 | 137 | 3.2 | 6.4 | 0.00 | 0.66 | 0.00 | 96 | 1004.0 |
| 20260830230904 | 14 | 137 | 3.2 | 6.4 | 0.00 | 0.66 | 0.00 | 96 | 1004.0 |
| 20260830230004 | 14 | 137 | 3.2 | 4.8 | 0.00 | 0.66 | 0.00 | 96 | 1004.0 |
| 20260830225404 | 14 | 137 | 3.2 | 4.8 | 0.00 | 0.66 | 0.00 | 96 | 1004.0 |
| 20260830224503 | 14 | 137 | 3.2 | 6.4 | 0.00 | 0.66 | 0.00 | 96 | 1003.9 |
| 20260830223625 | 14 | 137 | 3.2 | 6.4 | 0.00 | 0.66 | 0.00 | 96 | 1003.9 |
| 20260830222704 | 14 | 137 | 3.2 | 6.4 | 0.00 | 0.66 | 0.00 | 96 | 1003.9 |
| 20260830221804 | 14 | 136 | 3.2 | 6.4 | 0.00 | 0.66 | 0.00 | 96 | 1003.9 |
| 20260830220904 | 14 | 136 | 3.2 | 6.4 | 0.00 | 0.66 | 0.00 | 95 | 1003.9 |
| 20260830220004 | 14 | 151 | 3.2 | 8.0 | 0.00 | 0.66 | 0.00 | 96 | 1003.9 |
| 20260830215404 | 14 | 166 | 4.8 | 8.0 | 0.00 | 0.66 | 0.00 | 95 | 1003.8 |
| 20260830214504 | 15 | 164 | 4.8 | 8.0 | 0.00 | 0.66 | 0.00 | 95 | 1003.9 |
| 20260830213625 | 15 | 165 | 4.8 | 11.3 | 0.00 | 0.66 | 0.00 | 95 | 1003.9 |
| 20260830212703 | 15 | 171 | 4.8 | 11.3 | 0.00 | 0.66 | 0.00 | 96 | 1004.0 |
| 20260830211803 | 15 | 173 | 6.4 | 11.3 | 0.00 | 0.66 | 0.00 | 96 | 1004.0 |
| 20260830210904 | 15 | 166 | 8.0 | 12.9 | 0.00 | 0.66 | 0.00 | 96 | 1003.9 |
| 20260830210026 | 15 | 169 | 6.4 | 12.9 | 0.00 | 0.66 | 0.00 | 95 | 1003.8 |
| 20260830205403 | 15 | 169 | 6.4 | 11.3 | 0.00 | 0.66 | 0.66 | 95 | 1003.8 |
| 20260830204525 | 15 | 157 | 8.0 | 14.5 | 0.00 | 0.66 | 0.66 | 95 | 1003.8 |
| 20260830203603 | 15 | 160 | 6.4 | 14.5 | 0.00 | 0.66 | 0.66 | 95 | 1003.7 |
| 20260830202725 | 15 | 156 | 8.0 | 14.5 | 0.03 | 0.66 | 0.66 | 95 | 1003.7 |
| 20260830201824 | 15 | 158 | 9.7 | 16.1 | 0.13 | 0.66 | 0.66 | 95 | 1003.6 |
| 20260830200903 | 15 | 148 | 8.0 | 16.1 | 0.15 | 0.66 | 0.66 | 95 | 1003.6 |
| 20260830200004 | 15 | 149 | 8.0 | 17.7 | 0.25 | 0.66 | 0.66 | 95 | 1003.6 |
| 20260830195403 | 15 | 150 | 8.0 | 17.7 | 0.28 | 0.66 | 0.66 | 95 | 1003.6 |
| 20260830194525 | 15 | 149 | 9.7 | 17.7 | 0.36 | 0.66 | 0.66 | 95 | 1003.6 |
| 20260830193603 | 15 | 145 | 8.0 | 14.5 | 0.38 | 0.66 | 0.66 | 94 | 1003.6 |
| 20260830192703 | 15 | 148 | 9.7 | 17.7 | 0.38 | 0.64 | 0.64 | 94 | 1003.6 |
| 20260830191824 | 15 | 141 | 9.7 | 16.1 | 0.28 | 0.51 | 0.51 | 94 | 1003.6 |
| 20260830190903 | 15 | 140 | 9.7 | 17.7 | 0.25 | 0.48 | 0.48 | 93 | 1003.5 |
| 20260830190004 | 15 | 142 | 9.7 | 16.1 | 0.15 | 0.38 | 0.38 | 93 | 1003.6 |
| 20260830185403 | 15 | 142 | 8.0 | 17.7 | 0.13 | 0.36 | 0.36 | 93 | 1003.6 |
| 20260830184504 | 15 | 145 | 6.4 | 12.9 | 0.05 | 0.28 | 0.28 | 92 | 1003.6 |
| 20260830183604 | 15 | 147 | 6.4 | 12.9 | 0.03 | 0.25 | 0.25 | 92 | 1003.7 |
| 20260830182704 | 15 | 148 | 8.0 | 12.9 | 0.00 | 0.23 | 0.23 | 92 | 1003.7 |
| 20260830181803 | 15 | 149 | 8.0 | 16.1 | 0.00 | 0.23 | 0.23 | 91 | 1003.7 |
| 20260830180904 | 15 | 150 | 9.7 | 16.1 | 0.00 | 0.23 | 0.23 | 91 | 1003.7 |
| 20260830180004 | 15 | 147 | 8.0 | 12.9 | 0.00 | 0.23 | 0.23 | 91 | 1003.7 |
| 20260830175425 | 15 | 147 | 8.0 | 16.1 | 0.00 | 0.23 | 0.23 | 91 | 1003.7 |
| 20260830174503 | 16 | 149 | 9.7 | 16.1 | 0.00 | 0.23 | 0.23 | 90 | 1003.7 |
| 20260830173603 | 16 | 145 | 8.0 | 17.7 | 0.00 | 0.23 | 0.23 | 90 | 1003.7 |
| 20260830172703 | 16 | 144 | 8.0 | 19.3 | 0.00 | 0.23 | 0.23 | 90 | 1003.6 |
| 20260830171803 | 16 | 146 | 8.0 | 19.3 | 0.00 | 0.23 | 0.23 | 90 | 1003.6 |
| 20260830170903 | 16 | 146 | 8.0 | 14.5 | 0.00 | 0.23 | 0.23 | 90 | 1003.6 |
| 20260830170003 | 16 | 143 | 11.3 | 22.5 | 0.00 | 0.23 | 0.23 | 89 | 1003.5 |
| 20260830165403 | 16 | 142 | 9.7 | 22.5 | 0.00 | 0.23 | 0.23 | 89 | 1003.5 |
| 20260830164503 | 16 | 142 | 9.7 | 17.7 | 0.00 | 0.23 | 0.23 | 89 | 1003.5 |
| 20260830163604 | 16 | 143 | 9.7 | 19.3 | 0.00 | 0.23 | 0.23 | 89 | 1003.5 |
| 20260830162724 | 16 | 146 | 9.7 | 17.7 | 0.00 | 0.23 | 0.23 | 88 | 1003.6 |
| 20260830161803 | 16 | 141 | 9.7 | 17.7 | 0.00 | 0.23 | 0.23 | 88 | 1003.5 |
| 20260830160924 | 16 | 143 | 8.0 | 16.1 | 0.00 | 0.23 | 0.23 | 88 | 1003.5 |
| 20260830160003 | 16 | 141 | 9.7 | 16.1 | 0.00 | 0.23 | 0.23 | 88 | 1003.5 |
| 20260830155403 | 16 | 143 | 9.7 | 20.9 | 0.00 | 0.23 | 0.23 | 87 | 1003.6 |
| 20260830154504 | 16 | 152 | 12.9 | 25.7 | 0.00 | 0.23 | 0.23 | 87 | 1003.5 |
| 20260830153625 | 16 | 151 | 11.3 | 22.5 | 0.00 | 0.23 | 0.23 | 87 | 1003.6 |
| 20260830152703 | 17 | 152 | 12.9 | 25.7 | 0.00 | 0.23 | 0.23 | 87 | 1003.7 |
| 20260830151803 | 17 | 153 | 12.9 | 24.1 | 0.00 | 0.23 | 0.23 | 87 | 1003.7 |
| 20260830150903 | 17 | 144 | 8.0 | 20.9 | 0.00 | 0.23 | 0.23 | 87 | 1003.7 |
| 20260830150004 | 17 | 142 | 11.3 | 22.5 | 0.00 | 0.23 | 0.23 | 87 | 1003.8 |
| 20260830145424 | 17 | 145 | 11.3 | 20.9 | 0.00 | 0.23 | 0.23 | 87 | 1003.9 |
| 20260830144503 | 17 | 149 | 12.9 | 22.5 | 0.00 | 0.23 | 0.23 | 87 | 1003.9 |
| 20260830143603 | 17 | 155 | 9.7 | 20.9 | 0.00 | 0.23 | 0.23 | 88 | 1003.8 |
| 20260830142703 | 17 | 153 | 12.9 | 22.5 | 0.00 | 0.23 | 0.23 | 88 | 1003.9 |
| 20260830141803 | 17 | 150 | 12.9 | 24.1 | 0.00 | 0.23 | 0.23 | 87 | 1003.9 |
| 20260830140903 | 17 | 152 | 12.9 | 27.4 | 0.00 | 0.23 | 0.23 | 87 | 1003.8 |
| 20260830140025 | 17 | 151 | 16.1 | 30.6 | 0.00 | 0.23 | 0.23 | 88 | 1003.8 |
| 20260830135424 | 17 | 156 | 14.5 | 30.6 | 0.00 | 0.23 | 0.23 | 88 | 1003.9 |
| 20260830134504 | 17 | 153 | 12.9 | 27.4 | 0.00 | 0.23 | 0.23 | 88 | 1003.9 |
| 20260830133603 | 16 | 157 | 12.9 | 22.5 | 0.00 | 0.23 | 0.23 | 89 | 1003.9 |
| 20260830132724 | 16 | 147 | 11.3 | 24.1 | 0.00 | 0.23 | 0.23 | 90 | 1003.8 |
| 20260830131803 | 16 | 145 | 14.5 | 25.7 | 0.00 | 0.23 | 0.23 | 90 | 1003.8 |
| 20260830130904 | 16 | 143 | 9.7 | 19.3 | 0.00 | 0.23 | 0.23 | 91 | 1003.8 |
| 20260830130003 | 16 | 150 | 11.3 | 22.5 | 0.00 | 0.23 | 0.23 | 90 | 1003.9 |
| 20260830125404 | 16 | 150 | 14.5 | 27.4 | 0.00 | 0.23 | 0.23 | 89 | 1003.9 |
| 20260830124503 | 17 | 149 | 11.3 | 27.4 | 0.00 | 0.23 | 0.23 | 90 | 1003.9 |
| 20260830123603 | 16 | 155 | 12.9 | 25.7 | 0.00 | 0.23 | 0.23 | 90 | 1003.9 |
| 20260830122703 | 16 | 152 | 11.3 | 20.9 | 0.00 | 0.23 | 0.23 | 91 | 1004.0 |
| 20260830121803 | 16 | 153 | 11.3 | 22.5 | 0.00 | 0.23 | 0.23 | 92 | 1004.1 |
| 20260830120903 | 16 | 149 | 11.3 | 19.3 | 0.00 | 0.23 | 0.23 | 92 | 1004.1 |
| 20260830120004 | 16 | 149 | 11.3 | 20.9 | 0.00 | 0.23 | 0.23 | 92 | 1004.1 |
| 20260830115403 | 16 | 151 | 12.9 | 20.9 | 0.00 | 0.23 | 0.23 | 93 | 1004.1 |
| 20260830114504 | 16 | 154 | 11.3 | 22.5 | 0.00 | 0.23 | 0.23 | 94 | 1004.1 |
| 20260830113603 | 15 | 156 | 9.7 | 20.9 | 0.00 | 0.23 | 0.23 | 94 | 1004.2 |
| 20260830112724 | 15 | 153 | 12.9 | 24.1 | 0.00 | 0.23 | 0.23 | 95 | 1004.2 |
| 20260830111803 | 15 | 153 | 14.5 | 24.1 | 0.00 | 0.23 | 0.23 | 95 | 1004.3 |
| 20260830110903 | 15 | 149 | 11.3 | 27.4 | 0.00 | 0.23 | 0.23 | 95 | 1004.3 |
| 20260830110024 | 15 | 151 | 11.3 | 24.1 | 0.00 | 0.23 | 0.23 | 95 | 1004.4 |
| 20260830105404 | 15 | 151 | 11.3 | 22.5 | 0.00 | 0.23 | 0.23 | 95 | 1004.4 |
| 20260830104504 | 15 | 152 | 11.3 | 22.5 | 0.00 | 0.23 | 0.23 | 95 | 1004.4 |
| 20260830103624 | 15 | 154 | 14.5 | 24.1 | 0.00 | 0.23 | 0.23 | 95 | 1004.2 |
| 20260830102703 | 15 | 156 | 12.9 | 25.7 | 0.00 | 0.23 | 0.23 | 95 | 1004.2 |
| 20260830101803 | 14 | 157 | 12.9 | 20.9 | 0.00 | 0.23 | 0.23 | 95 | 1004.2 |
| 20260830100903 | 14 | 154 | 12.9 | 27.4 | 0.00 | 0.23 | 0.23 | 95 | 1004.1 |
| 20260830100004 | 14 | 154 | 12.9 | 20.9 | 0.03 | 0.23 | 0.23 | 95 | 1004.1 |
| 20260830095424 | 14 | 157 | 11.3 | 25.7 | 0.03 | 0.23 | 0.23 | 95 | 1004.1 |
| 20260830094503 | 14 | 152 | 12.9 | 25.7 | 0.03 | 0.23 | 0.23 | 95 | 1004.0 |
| 20260830093603 | 14 | 153 | 14.5 | 25.7 | 0.03 | 0.23 | 0.23 | 95 | 1004.1 |
| 20260830092703 | 14 | 147 | 14.5 | 25.7 | 0.03 | 0.23 | 0.23 | 95 | 1004.0 |
| 20260830091803 | 13 | 148 | 14.5 | 27.4 | 0.03 | 0.23 | 0.23 | 95 | 1004.0 |
| 20260830090903 | 13 | 149 | 14.5 | 25.7 | 0.03 | 0.23 | 0.23 | 95 | 1004.0 |
| 20260830090004 | 13 | 147 | 14.5 | 25.7 | 0.00 | 0.20 | 0.20 | 95 | 1004.0 |
| 20260830085403 | 13 | 146 | 16.1 | 25.7 | 0.00 | 0.20 | 0.20 | 95 | 1004.0 |
| 20260830084503 | 13 | 145 | 12.9 | 27.4 | 0.00 | 0.20 | 0.20 | 95 | 1004.0 |
| 20260830083603 | 13 | 144 | 14.5 | 29.0 | 0.00 | 0.20 | 0.20 | 95 | 1003.9 |
| 20260830082703 | 13 | 139 | 14.5 | 25.7 | 0.00 | 0.20 | 0.20 | 95 | 1004.0 |
| 20260830081803 | 13 | 142 | 16.1 | 29.0 | 0.00 | 0.20 | 0.20 | 95 | 1004.0 |
| 20260830080903 | 13 | 142 | 14.5 | 27.4 | 0.03 | 0.20 | 0.20 | 95 | 1004.0 |
| 20260830080004 | 13 | 142 | 14.5 | 25.7 | 0.03 | 0.20 | 0.20 | 95 | 1004.0 |
| 20260830075403 | 13 | 145 | 14.5 | 29.0 | 0.03 | 0.20 | 0.20 | 94 | 1004.1 |
| 20260830074503 | 13 | 143 | 12.9 | 24.1 | 0.05 | 0.20 | 0.20 | 94 | 1004.2 |
| 20260830073603 | 13 | 136 | 12.9 | 24.1 | 0.05 | 0.20 | 0.20 | 94 | 1004.2 |
| 20260830072724 | 13 | 139 | 11.3 | 25.7 | 0.05 | 0.20 | 0.20 | 94 | 1004.2 |
| 20260830071803 | 13 | 139 | 12.9 | 22.5 | 0.08 | 0.20 | 0.20 | 94 | 1004.3 |
| 20260830070903 | 13 | 132 | 11.3 | 22.5 | 0.08 | 0.18 | 0.18 | 94 | 1004.3 |
| 20260830070003 | 13 | 134 | 11.3 | 25.7 | 0.10 | 0.18 | 0.18 | 94 | 1004.3 |
| 20260830065403 | 13 | 133 | 11.3 | 19.3 | 0.13 | 0.18 | 0.18 | 94 | 1004.4 |
| 20260830064524 | 13 | 130 | 11.3 | 19.3 | 0.10 | 0.15 | 0.15 | 94 | 1004.4 |
| 20260830063624 | 13 | 129 | 9.7 | 20.9 | 0.13 | 0.15 | 0.15 | 94 | 1004.5 |
| 20260830062703 | 13 | 125 | 11.3 | 19.3 | 0.15 | 0.15 | 0.15 | 94 | 1004.4 |
| 20260830061803 | 13 | 125 | 11.3 | 19.3 | 0.13 | 0.13 | 0.13 | 94 | 1004.5 |